{"data":{"norad_id":67187,"epoch":"2026-05-24T23:13:39.883008Z","epoch_age_seconds":80987,"freshness":"FRESH","line1":"1 67187U 25303AA  26144.96782272  .00018192  00000+0  66900-3 0  9996","line2":"2 67187  42.9985 239.6956 0001112 304.8436  55.2311 15.27578771 24408","mean_motion":15.27578771,"eccentricity":0.0001112,"inclination_deg":42.9985,"raan_deg":239.6956,"arg_perigee_deg":304.8436,"mean_anomaly_deg":55.2311,"bstar":0.000669,"rev_number":2440,"period_min":94.266824555131,"perigee_km":482.28981180715,"apogee_km":483.81574041335,"semimajor_km":6861.1897761103,"source":"CELESTRAK","updated_at":"2026-05-25T13:38:21.484933Z"}}